Regional Weather Roundup
Issued by NWS

Home | Current Version | Previous Version | Graphics & Text | Print | Product List | Glossary Off
Versions: 1 2 3 4 5 6 7 8 9 10 11 12 13 14 15 16 17 18 19 20 21 22 23 24 25 26 27 28 29 30 31 32 33 34 35 36 37 38 39 40 41 42 43 44 45 46 47 48 49 50

000
ASUS43 KMKX 110121
RWRWI

WISCONSIN REGIONAL WEATHER ROUNDUP
NATIONAL WEATHER SERVICE MILWAUKEE/SULLIVAN WI
700 PM CST SAT DEC 10 2016

NOTE: "FAIR" INDICATES FEW OR NO CLOUDS BELOW 12,000 FEET WITH NO
SIGNIFICANT WEATHER AND/OR OBSTRUCTIONS TO VISIBILITY.

WIZ001-002-006>008-014>016-023>028-110200-
NORTHWEST WISCONSIN

CITY           SKY/WX    TMP DP  RH WIND       PRES   REMARKS
SUPERIOR ARPT  CLOUDY     7   3  84 N3        30.31F
ASHLAND        CLOUDY     3   0  87 CALM      30.31F
HAYWARD        CLOUDY     9   3  77 CALM      30.25F
SIREN          CLOUDY    11   2  68 SE5       30.25F WCI   3
CUMBERLAND     CLOUDY    10   3  72 E5        30.23F WCI   2
RICE LAKE      CLOUDY    12   4  71 SE6       30.27F WCI   2
CHETEK         CLOUDY    11   3  71 SE5       30.26F WCI   3
LADYSMITH      MOCLDY    11   5  78 E3        30.27F
EAU CLAIRE     LGT SNOW  13   8  81 E6        30.27F WCI   4
MENOMONIE      LGT SNOW  13   9  83 E6        30.27F WCI   4
NEW RICHMOND   LGT SNOW  11   6  79 SE5       30.25F WCI   3
OSCEOLA        FLURRIES  12   7  79 SE7       30.28F WCI   2
$$

WIZ003>005-009-010-017-018-110200-
NORTH CENTRAL WISCONSIN

CITY           SKY/WX    TMP DP  RH WIND       PRES   REMARKS
MANITOWISH WTR CLOUDY    -5  -7  91 CALM      30.23F
ARBOR VITAE    CLOUDY     1  -2  85 CALM      30.24F
WOODRUFF       CLOUDY     1  -2  85 CALM      30.24F
RHINELANDER    CLOUDY     6  -1  73 S3        30.25F
EAGLE RIVER    CLOUDY    -1  -5  83 CALM      30.24F
LAND O LAKES   CLOUDY    -4  -8  84 CALM      30.26F
PHILLIPS       CLOUDY     4   0  86 CALM      30.24F
TOMAHAWK       PTCLDY     6   1  83 CALM      30.26F
MEDFORD        CLOUDY     9   2  75 CALM      30.25S
MERRILL        CLOUDY    10   2  72 CALM      30.28F
$$

WIZ029-030-035-036-043>047-110200-
CENTRAL WISCONSIN

CITY           SKY/WX    TMP DP  RH WIND       PRES   REMARKS
WAUSAU         CLOUDY    10   3  73 E5        30.27F WCI   2
MOSINEE        MOCLDY    10   5  79 E3        30.28F
MARSHFIELD     LGT SNOW  12   8  84 S5        30.26S FOG     WCI   4
STEVENS POINT  MIX PCPN  12   8  83 CALM      30.30F
WAUPACA        LGT SNOW  17   9  68 CALM      30.34F
WAUTOMA        LGT SNOW  16  12  86 SE3       30.32F FOG
WISC RAPIDS    LGT SNOW  14  11  87 SE5       30.30F FOG     WCI   6
CAMP DOUGLAS   LGT SNOW  15  11  85 E6        30.29F FOG     WCI   6
$$

WIZ011>013-019>022-031-037>040-048>050-110200-
NORTHEAST WISCONSIN

CITY           SKY/WX    TMP DP  RH WIND       PRES   REMARKS
ANTIGO         CLOUDY     7   2  79 CALM      30.26F
SHAWANO        PTCLDY    15   7  68 CALM      30.34F
OCONTO         PTCLDY    10   5  78 CALM      30.36S
STURGEON BAY   PTCLDY    15   7  70 W5        30.35F WCI   8
GREEN BAY      CLOUDY    19   9  65 CALM      30.35F
MANITOWOC      CLOUDY    18  10  71 W6        30.37F WCI  10
APPLETON       CLOUDY    16   5  62 VRB5      30.32F WCI   9
CLINTONVILLE   CLOUDY    18   5  57 CALM      30.34F
OSHKOSH        LGT SNOW  17  11  77 SW3       30.34F
$$

WIZ032>034-041-042-053>061-110200-
SOUTHWEST WISCONSIN

CITY           SKY/WX    TMP DP  RH WIND       PRES   REMARKS
LA CROSSE      LGT SNOW  17  12  80 E6        30.29F WCI   9
SPARTA         LGT SNOW  15  13  91 CALM      30.30F
VIROQUA        CLOUDY    15  13  93 E9        30.23F WCI   3
BOSCOBEL       LGT SNOW  20  16  84 NE3       30.29F FOG
PRAIRIE DU CHI LGT SNOW  20  16  85 E5        30.27F WCI  14
PLATTEVILLE    CLOUDY    20  20  98 E8        30.26F WCI  11
$$

WIZ056-057-062-063-064-067-068-110200-
SOUTH CENTRAL WISCONSIN

CITY           SKY/WX    TMP DP  RH WIND       PRES   REMARKS
REEDSBURG      LGT SNOW  17  15  95 E3        30.30F
BARABOO/DELLS  LGT SNOW  17  14  89 E5        30.30F VSB 3/4 WCI  10
LONE ROCK      LGT SNOW  19  15  84 E8        30.31F FOG     WCI   9
MINERAL POINT  LGT SNOW  21  21 100 SE8       30.26F WCI  12
MADISON        LGT SNOW  19  16  88 SE7       30.32F VSB 1   WCI  10
MIDDLETON      CLOUDY    21  19  91 SE5       30.31F WCI  14
WATERTOWN      LGT SNOW  19  19  98 SE3       30.33F
MONROE         LGT SNOW  19  19 100 SE7       30.29F WCI  10
JANESVILLE     LGT SNOW  21  21 100 SE7       30.33F VSB 1   WCI  13
$$

WIZ051-052-058>065-066-070>072-110200-
SOUTHEAST WISCONSIN

CITY           SKY/WX    TMP DP  RH WIND       PRES   REMARKS
MILWAUKEE      LGT SNOW  22  17  81 SW7       30.36F WCI  13
WAUKESHA       LGT SNOW  18  16  93 S5        30.36F WCI  11
MILWAUKEE/TIMM LGT SNOW  19  16  86 SW5       30.37F WCI  13
RACINE         LGT SNOW  21  16  81 SW5       30.39F WCI  15
BURLINGTON     LGT SNOW  25  23  93 CALM      30.35F
KENOSHA        LGT SNOW  21  18  88 CALM      30.37F FOG
FOND DU LAC    LGT SNOW  18  11  74 S3        30.35F
SHEBOYGAN      FLURRIES  18   8  65 W5        30.36F WCI  11
WEST BEND      LGT SNOW  19  18  93 SW3       30.34F
JUNEAU         LGT SNOW  18  15  90 SE3       30.34F
$$

LSZ147-162-110200-
LAKE SUPERIOR

STATION/POSITION TIME  TEMP    WIND        PRES    WAVE
                       AIR SEA DIR/SP/G            HT/PER
                 (UTC) (F)     (DEG/KT/KT) (MB)    (FT/S)
DEVILS ISLAND    0100   13     190/ 10/ 13 1027.6F
PORT WING        0040    6     130/  2/  6 1026.8F
SAXON HARBOR     0040    1     170/  4/  5 1026.8F
$$

LMZ867-665-643>646-110200-
LAKE MICHIGAN

STATION/POSITION TIME  TEMP    WIND        PRES    WAVE
                       AIR SEA DIR/SP/G            HT/PER
                 (UTC) (F)     (DEG/KT/KT) (MB)    (FT/S)
CHAMBERS ISLAND  0040   18     220/  6/  9 1027.1S
NORTHPORT PIER   0101   16     190/  1/  5 1027.1
SISTER BAY       0050   16     180/  9/ 12   N/A
ALGOMA LAKESHORE 0036          260/  4/  6   N/A
KEWAUNEE LAKESHO 0054   17      CALM  /  3 1027.4F
SHEBOYGAN LAKESH 0100   19     270/  6/  7 1029.2F
PORT WASHINGTON  0040   21     260/  4/  7 1029.5F
KENOSHA   LAKESH 0100   21     210/  3/  5 1028.4
$$

TC  - TEMPERATURE IN CELSIUS
VSB - VISIBILITY IN STATUTE MILES
WCI - WIND CHILL INDEX
HX  - HEAT INDEX





USA.gov is the U.S. government's official web portal to all federal, state and local government web resources and services.